bmsdvc4.tbs
77.0000 TLOS

0.0000

UNSTAKED

77.0000 TLOS

STAKED

NET 0.0000 / CPU 0.0000

UNSTAKING

72.60 ms. / 0.01 hr.

CPU 70.00 TLOS

59.35 KB / 0.01 GB

BANDWIDTH 7.00 TLOS

3.43 KB / 117.96 KB

MEMORY USAGE 2.91 %
TOKENS
VOTES
Showing 1 to 200 entries
ACTIONS
DATE BLOCK TRX TYPE DATA
2019-06-24T19:53:45 33312011 bc6680... logstats { "device_id" : 4000, "temperature" : "10.00000000000000000", "humidity" : "0.50000000000000000", "vin" : "0.00000000000000000", "pressure" : "340.83120000000002392", "lat" : "47.18160000000000309", "lon" : "-119.31229999999999336" }
2019-06-24T19:50:52 33311663 de7aa5... logstats { "device_id" : 4000, "temperature" : "10.00000000000000000", "humidity" : "0.50000000000000000", "vin" : "0.00000000000000000", "pressure" : "340.83030000000002246", "lat" : "47.18160000000000309", "lon" : "-119.31229999999999336" }
2019-06-24T19:45:12 33310985 2c9200... logstats { "device_id" : 4000, "temperature" : "10.00000000000000000", "humidity" : "0.50000000000000000", "vin" : "0.00000000000000000", "pressure" : "340.84980000000001610", "lat" : "47.18160000000000309", "lon" : "-119.31229999999999336" }
2019-06-24T19:43:58 33310829 2457ff... logstats { "device_id" : 4000, "temperature" : "10.00000000000000000", "humidity" : "0.50000000000000000", "vin" : "0.00000000000000000", "pressure" : "340.84989999999999100", "lat" : "47.18160000000000309", "lon" : "-119.31229999999999336" }
2019-06-24T19:41:15 33310512 a4f6bc... logstats { "device_id" : 4000, "temperature" : "10.00000000000000000", "humidity" : "0.50000000000000000", "vin" : "0.00000000000000000", "pressure" : "340.86779999999998836", "lat" : "47.18160000000000309", "lon" : "-119.31229999999999336" }
2019-06-24T19:39:57 33310355 c261e2... logstats { "device_id" : 4000, "temperature" : "10.00000000000000000", "humidity" : "0.50000000000000000", "vin" : "0.00000000000000000", "pressure" : "340.86369999999999436", "lat" : "47.18160000000000309", "lon" : "-119.31229999999999336" }
2019-06-24T19:38:43 33310200 80176a... logstats { "device_id" : 4000, "temperature" : "10.00000000000000000", "humidity" : "0.50000000000000000", "vin" : "0.00000000000000000", "pressure" : "340.86180000000001655", "lat" : "47.18160000000000309", "lon" : "-119.31229999999999336" }
2019-06-24T19:37:29 33310051 f8449d... logstats { "device_id" : 4000, "temperature" : "10.00000000000000000", "humidity" : "0.50000000000000000", "vin" : "0.00000000000000000", "pressure" : "340.87189999999998236", "lat" : "47.18160000000000309", "lon" : "-119.31229999999999336" }
2019-06-24T19:33:25 33309563 dac82d... logstats { "device_id" : 4000, "temperature" : "10.00000000000000000", "humidity" : "0.50000000000000000", "vin" : "0.00000000000000000", "pressure" : "340.87139999999999418", "lat" : "47.18160000000000309", "lon" : "-119.31229999999999336" }
2019-06-24T19:29:01 33309038 41d44d... logstats { "device_id" : 4000, "temperature" : "10.00000000000000000", "humidity" : "0.50000000000000000", "vin" : "1.56250000000000000", "pressure" : "340.88440000000002783", "lat" : "47.18160000000000309", "lon" : "-119.31229999999999336" }
2019-06-24T19:27:46 33308888 bcf388... logstats { "device_id" : 4000, "temperature" : "10.00000000000000000", "humidity" : "0.50000000000000000", "vin" : "1.56250000000000000", "pressure" : "340.88499999999999091", "lat" : "47.18160000000000309", "lon" : "-119.31229999999999336" }
2019-06-24T19:26:29 33308738 6825ec... logstats { "device_id" : 4000, "temperature" : "10.00000000000000000", "humidity" : "0.50000000000000000", "vin" : "1.75780000000000003", "pressure" : "340.88249999999999318", "lat" : "47.18160000000000309", "lon" : "-119.31229999999999336" }
2019-06-24T19:23:51 33308413 4161c8... logstats { "device_id" : 4000, "temperature" : "10.00000000000000000", "humidity" : "0.50000000000000000", "vin" : "0.00000000000000000", "pressure" : "340.89519999999998845", "lat" : "47.18160000000000309", "lon" : "-119.31229999999999336" }
2019-06-24T19:22:33 33308265 7f7b78... logstats { "device_id" : 4000, "temperature" : "10.00000000000000000", "humidity" : "0.50000000000000000", "vin" : "0.00000000000000000", "pressure" : "340.89589999999998327", "lat" : "47.18160000000000309", "lon" : "-119.31229999999999336" }
2019-06-24T19:18:25 33307765 7c7340... logstats { "device_id" : 4000, "temperature" : "10.00000000000000000", "humidity" : "0.50000000000000000", "vin" : "0.00000000000000000", "pressure" : "340.92430000000001655", "lat" : "47.18160000000000309", "lon" : "-119.31229999999999336" }
2019-06-24T19:17:10 33307614 fca690... logstats { "device_id" : 4000, "temperature" : "10.00000000000000000", "humidity" : "0.50000000000000000", "vin" : "0.00000000000000000", "pressure" : "340.91860000000002628", "lat" : "47.18160000000000309", "lon" : "-119.31229999999999336" }
2019-06-24T19:14:25 33307292 5330c1... logstats { "device_id" : 4000, "temperature" : "10.00000000000000000", "humidity" : "0.50000000000000000", "vin" : "0.00000000000000000", "pressure" : "340.92869999999999209", "lat" : "47.18160000000000309", "lon" : "-119.31229999999999336" }
2019-06-24T19:13:11 33307134 de6942... logstats { "device_id" : 4000, "temperature" : "10.00000000000000000", "humidity" : "0.50000000000000000", "vin" : "0.00000000000000000", "pressure" : "340.92910000000000537", "lat" : "47.18160000000000309", "lon" : "-119.31229999999999336" }
2019-06-24T19:08:40 33306604 667458... logstats { "device_id" : 4000, "temperature" : "10.00000000000000000", "humidity" : "0.50000000000000000", "vin" : "0.00000000000000000", "pressure" : "340.91370000000000573", "lat" : "47.18160000000000309", "lon" : "-119.31229999999999336" }
2019-06-24T19:05:51 33306263 084439... logstats { "device_id" : 4000, "temperature" : "10.00000000000000000", "humidity" : "0.50000000000000000", "vin" : "0.00000000000000000", "pressure" : "340.92290000000002692", "lat" : "47.18160000000000309", "lon" : "-119.31229999999999336" }
2019-06-24T19:03:01 33305922 7c37fa... logstats { "device_id" : 4000, "temperature" : "10.00000000000000000", "humidity" : "0.50000000000000000", "vin" : "0.00000000000000000", "pressure" : "340.92790000000002237", "lat" : "47.18160000000000309", "lon" : "-119.31229999999999336" }
2019-06-24T18:55:57 33305073 8fa753... logstats { "device_id" : 4000, "temperature" : "10.00000000000000000", "humidity" : "0.50000000000000000", "vin" : "0.78129999999999999", "pressure" : "341.03579999999999472", "lat" : "47.18160000000000309", "lon" : "-119.31229999999999336" }
2019-06-24T18:53:11 33304746 088dc7... logstats { "device_id" : 4000, "temperature" : "10.00000000000000000", "humidity" : "0.50000000000000000", "vin" : "0.00000000000000000", "pressure" : "340.98320000000001073", "lat" : "47.18160000000000309", "lon" : "-119.31229999999999336" }
2019-06-24T18:48:58 33304236 97b324... logstats { "device_id" : 4000, "temperature" : "10.00000000000000000", "humidity" : "0.50000000000000000", "vin" : "0.00000000000000000", "pressure" : "340.98550000000000182", "lat" : "47.18160000000000309", "lon" : "-119.31229999999999336" }
2019-06-24T18:47:39 33304080 483ca0... logstats { "device_id" : 4000, "temperature" : "10.00000000000000000", "humidity" : "0.50000000000000000", "vin" : "0.00000000000000000", "pressure" : "340.99540000000001783", "lat" : "47.18160000000000309", "lon" : "-119.31229999999999336" }
2019-06-24T18:30:31 33302017 99cde0... logstats { "device_id" : 4000, "temperature" : "10.00000000000000000", "humidity" : "0.50000000000000000", "vin" : "0.58589999999999998", "pressure" : "341.11140000000000327", "lat" : "47.18160000000000309", "lon" : "-119.31229999999999336" }
2019-06-24T18:29:16 33301866 6aeef2... logstats { "device_id" : 4000, "temperature" : "10.00000000000000000", "humidity" : "0.50000000000000000", "vin" : "0.19530000000000000", "pressure" : "341.11099999999999000", "lat" : "47.18160000000000309", "lon" : "-119.31229999999999336" }
2019-06-24T18:27:59 33301717 50d5d0... logstats { "device_id" : 4000, "temperature" : "10.00000000000000000", "humidity" : "0.50000000000000000", "vin" : "0.00000000000000000", "pressure" : "341.11970000000002301", "lat" : "47.18160000000000309", "lon" : "-119.31229999999999336" }
2019-06-24T18:26:43 33301562 ec07e9... logstats { "device_id" : 4000, "temperature" : "10.00000000000000000", "humidity" : "0.50000000000000000", "vin" : "0.19530000000000000", "pressure" : "341.11700000000001864", "lat" : "47.18160000000000309", "lon" : "-119.31229999999999336" }
2019-06-24T18:22:16 33301031 d9b01c... logstats { "device_id" : 4000, "temperature" : "10.00000000000000000", "humidity" : "0.50000000000000000", "vin" : "0.00000000000000000", "pressure" : "341.14530000000002019", "lat" : "47.18160000000000309", "lon" : "-119.31229999999999336" }
2019-06-24T18:21:01 33300875 ca69ca... logstats { "device_id" : 4000, "temperature" : "10.00000000000000000", "humidity" : "0.50000000000000000", "vin" : "0.00000000000000000", "pressure" : "341.14550000000002683", "lat" : "47.18160000000000309", "lon" : "-119.31229999999999336" }
2019-06-24T18:13:57 33300034 d462a7... logstats { "device_id" : 4000, "temperature" : "10.00000000000000000", "humidity" : "0.50000000000000000", "vin" : "0.00000000000000000", "pressure" : "341.08080000000001064", "lat" : "47.18160000000000309", "lon" : "-119.31229999999999336" }
2019-06-24T18:08:21 33299366 7d2e97... logstats { "device_id" : 4000, "temperature" : "10.00000000000000000", "humidity" : "0.50000000000000000", "vin" : "0.00000000000000000", "pressure" : "341.10500000000001819", "lat" : "47.18160000000000309", "lon" : "-119.31229999999999336" }
2019-06-24T17:59:50 33298333 540744... logstats { "device_id" : 4000, "temperature" : "10.00000000000000000", "humidity" : "0.50000000000000000", "vin" : "0.00000000000000000", "pressure" : "341.19290000000000873", "lat" : "47.18160000000000309", "lon" : "-119.31229999999999336" }
2019-06-24T17:57:11 33298015 5b886f... logstats { "device_id" : 4000, "temperature" : "10.00000000000000000", "humidity" : "0.50000000000000000", "vin" : "0.00000000000000000", "pressure" : "341.20269999999999300", "lat" : "47.18160000000000309", "lon" : "-119.31229999999999336" }
2019-06-24T17:55:51 33297864 7c386b... logstats { "device_id" : 4000, "temperature" : "10.00000000000000000", "humidity" : "0.50000000000000000", "vin" : "0.00000000000000000", "pressure" : "341.20159999999998490", "lat" : "47.18160000000000309", "lon" : "-119.31229999999999336" }
2019-06-24T17:50:28 33297212 a86ba7... logstats { "device_id" : 4000, "temperature" : "10.00000000000000000", "humidity" : "0.50000000000000000", "vin" : "0.00000000000000000", "pressure" : "341.21730000000002292", "lat" : "47.18160000000000309", "lon" : "-119.31229999999999336" }
2019-06-24T17:49:13 33297062 c3eae1... logstats { "device_id" : 4000, "temperature" : "10.00000000000000000", "humidity" : "0.50000000000000000", "vin" : "0.00000000000000000", "pressure" : "341.20449999999999591", "lat" : "47.18160000000000309", "lon" : "-119.31229999999999336" }
2019-06-24T17:47:58 33296912 043d5a... logstats { "device_id" : 4000, "temperature" : "10.00000000000000000", "humidity" : "0.50000000000000000", "vin" : "0.00000000000000000", "pressure" : "341.12560000000001992", "lat" : "47.18160000000000309", "lon" : "-119.31229999999999336" }
2019-06-24T17:46:40 33296761 4071f5... logstats { "device_id" : 4000, "temperature" : "10.00000000000000000", "humidity" : "0.50000000000000000", "vin" : "0.00000000000000000", "pressure" : "341.12529999999998154", "lat" : "47.18160000000000309", "lon" : "-119.31229999999999336" }
2019-06-24T17:36:33 33295549 7890f5... logstats { "device_id" : 4000, "temperature" : "10.00000000000000000", "humidity" : "0.50000000000000000", "vin" : "0.00000000000000000", "pressure" : "341.12639999999998963", "lat" : "47.18160000000000309", "lon" : "-119.31229999999999336" }
2019-06-24T17:35:15 33295390 e870ee... logstats { "device_id" : 4000, "temperature" : "10.00000000000000000", "humidity" : "0.50000000000000000", "vin" : "0.00000000000000000", "pressure" : "341.13540000000000418", "lat" : "47.18160000000000309", "lon" : "-119.31229999999999336" }
2019-06-24T17:33:58 33295235 d3a684... logstats { "device_id" : 4000, "temperature" : "10.00000000000000000", "humidity" : "0.50000000000000000", "vin" : "0.00000000000000000", "pressure" : "341.13720000000000709", "lat" : "47.18160000000000309", "lon" : "-119.31229999999999336" }
2019-06-24T17:32:43 33295081 80c4b4... logstats { "device_id" : 4000, "temperature" : "10.00000000000000000", "humidity" : "0.50000000000000000", "vin" : "0.00000000000000000", "pressure" : "341.18779999999998154", "lat" : "47.18160000000000309", "lon" : "-119.31229999999999336" }
2019-06-24T17:30:02 33294763 9f194b... logstats { "device_id" : 4000, "temperature" : "10.00000000000000000", "humidity" : "0.50000000000000000", "vin" : "0.00000000000000000", "pressure" : "341.20830000000000837", "lat" : "47.18160000000000309", "lon" : "-119.31229999999999336" }
2019-06-24T17:28:43 33294601 a4b83c... logstats { "device_id" : 4000, "temperature" : "10.00000000000000000", "humidity" : "0.50000000000000000", "vin" : "0.00000000000000000", "pressure" : "341.16100000000000136", "lat" : "47.18160000000000309", "lon" : "-119.31229999999999336" }
2019-06-24T17:21:43 33293764 1f72cb... logstats { "device_id" : 4000, "temperature" : "10.00000000000000000", "humidity" : "0.50000000000000000", "vin" : "0.00000000000000000", "pressure" : "341.22230000000001837", "lat" : "47.18160000000000309", "lon" : "-119.31229999999999336" }
2019-06-24T17:20:29 33293615 3f0378... logstats { "device_id" : 4000, "temperature" : "10.00000000000000000", "humidity" : "0.50000000000000000", "vin" : "0.00000000000000000", "pressure" : "341.15510000000000446", "lat" : "47.18160000000000309", "lon" : "-119.31229999999999336" }
2019-06-24T17:14:50 33292940 9f315e... logstats { "device_id" : 4000, "temperature" : "10.00000000000000000", "humidity" : "0.50000000000000000", "vin" : "0.00000000000000000", "pressure" : "341.17099999999999227", "lat" : "47.18160000000000309", "lon" : "-119.31229999999999336" }
2019-06-24T17:12:06 33292610 d78a32... logstats { "device_id" : 4000, "temperature" : "10.00000000000000000", "humidity" : "0.50000000000000000", "vin" : "0.00000000000000000", "pressure" : "341.16590000000002192", "lat" : "47.18160000000000309", "lon" : "-119.31229999999999336" }
2019-06-24T17:10:51 33292459 44ae54... logstats { "device_id" : 4000, "temperature" : "10.00000000000000000", "humidity" : "0.50000000000000000", "vin" : "0.00000000000000000", "pressure" : "341.16910000000001446", "lat" : "47.18160000000000309", "lon" : "-119.31229999999999336" }
2019-06-24T17:08:10 33292135 154285... logstats { "device_id" : 4000, "temperature" : "10.00000000000000000", "humidity" : "0.50000000000000000", "vin" : "0.00000000000000000", "pressure" : "341.18160000000000309", "lat" : "47.18160000000000309", "lon" : "-119.31229999999999336" }
2019-06-24T16:59:31 33291100 e90422... logstats { "device_id" : 4000, "temperature" : "10.00000000000000000", "humidity" : "0.50000000000000000", "vin" : "0.00000000000000000", "pressure" : "341.26740000000000919", "lat" : "47.18160000000000309", "lon" : "-119.31229999999999336" }
2019-06-24T16:55:29 33290616 a073d1... logstats { "device_id" : 4000, "temperature" : "10.00000000000000000", "humidity" : "0.50000000000000000", "vin" : "0.00000000000000000", "pressure" : "341.24040000000002237", "lat" : "47.18160000000000309", "lon" : "-119.31229999999999336" }
2019-06-24T16:54:15 33290466 3ef8b4... logstats { "device_id" : 4000, "temperature" : "10.00000000000000000", "humidity" : "0.50000000000000000", "vin" : "0.00000000000000000", "pressure" : "341.30299999999999727", "lat" : "47.18160000000000309", "lon" : "-119.31229999999999336" }
2019-06-24T16:51:37 33290152 b2a5f8... logstats { "device_id" : 4000, "temperature" : "10.00000000000000000", "humidity" : "0.50000000000000000", "vin" : "0.00000000000000000", "pressure" : "341.30590000000000828", "lat" : "47.18160000000000309", "lon" : "-119.31229999999999336" }
2019-06-24T16:35:36 33288234 2fed8a... logstats { "device_id" : 4000, "temperature" : "10.00000000000000000", "humidity" : "0.50000000000000000", "vin" : "0.19530000000000000", "pressure" : "341.31079999999997199", "lat" : "47.18160000000000309", "lon" : "-119.31229999999999336" }
2019-06-24T16:34:21 33288079 6058e8... logstats { "device_id" : 4000, "temperature" : "10.00000000000000000", "humidity" : "0.50000000000000000", "vin" : "0.00000000000000000", "pressure" : "341.31740000000002055", "lat" : "47.18160000000000309", "lon" : "-119.31229999999999336" }
2019-06-24T16:31:36 33287758 df8425... logstats { "device_id" : 4000, "temperature" : "10.00000000000000000", "humidity" : "0.50000000000000000", "vin" : "0.00000000000000000", "pressure" : "341.31760000000002719", "lat" : "47.18160000000000309", "lon" : "-119.31229999999999336" }
2019-06-24T16:30:21 33287601 75fed4... logstats { "device_id" : 4000, "temperature" : "10.00000000000000000", "humidity" : "0.50000000000000000", "vin" : "0.00000000000000000", "pressure" : "341.31999999999999318", "lat" : "47.18160000000000309", "lon" : "-119.31229999999999336" }
2019-06-24T16:29:01 33287448 91905c... logstats { "device_id" : 4000, "temperature" : "10.00000000000000000", "humidity" : "0.50000000000000000", "vin" : "0.00000000000000000", "pressure" : "341.31159999999999854", "lat" : "47.18160000000000309", "lon" : "-119.31229999999999336" }
2019-06-24T16:27:47 33287288 551f97... logstats { "device_id" : 4000, "temperature" : "10.00000000000000000", "humidity" : "0.50000000000000000", "vin" : "0.00000000000000000", "pressure" : "341.31779999999997699", "lat" : "47.18160000000000309", "lon" : "-119.31229999999999336" }
2019-06-24T16:26:32 33287140 da7e47... logstats { "device_id" : 4000, "temperature" : "10.00000000000000000", "humidity" : "0.50000000000000000", "vin" : "0.00000000000000000", "pressure" : "341.32720000000000482", "lat" : "47.18160000000000309", "lon" : "-119.31229999999999336" }
2019-06-24T16:25:14 33286989 f8a2a5... logstats { "device_id" : 4000, "temperature" : "10.00000000000000000", "humidity" : "0.50000000000000000", "vin" : "0.00000000000000000", "pressure" : "341.31740000000002055", "lat" : "47.18160000000000309", "lon" : "-119.31229999999999336" }
2019-06-24T16:22:31 33286666 25a3fe... logstats { "device_id" : 4000, "temperature" : "10.00000000000000000", "humidity" : "0.50000000000000000", "vin" : "0.00000000000000000", "pressure" : "341.28519999999997481", "lat" : "47.18160000000000309", "lon" : "-119.31229999999999336" }
2019-06-24T16:19:48 33286332 a87473... logstats { "device_id" : 4000, "temperature" : "10.00000000000000000", "humidity" : "0.50000000000000000", "vin" : "0.00000000000000000", "pressure" : "341.28449999999997999", "lat" : "47.18160000000000309", "lon" : "-119.31229999999999336" }
2019-06-24T16:15:24 33285805 af63d7... logstats { "device_id" : 4000, "temperature" : "10.00000000000000000", "humidity" : "0.50000000000000000", "vin" : "2.53909999999999991", "pressure" : "341.32029999999997472", "lat" : "47.18160000000000309", "lon" : "-119.31229999999999336" }
2019-06-24T16:14:06 33285656 785522... logstats { "device_id" : 4000, "temperature" : "10.00000000000000000", "humidity" : "0.50000000000000000", "vin" : "2.92969999999999997", "pressure" : "341.32069999999998799", "lat" : "47.18160000000000309", "lon" : "-119.31229999999999336" }
2019-06-24T16:11:21 33285324 76fe9c... logstats { "device_id" : 4000, "temperature" : "10.00000000000000000", "humidity" : "0.50000000000000000", "vin" : "2.73439999999999994", "pressure" : "341.30610000000001492", "lat" : "47.18160000000000309", "lon" : "-119.31229999999999336" }
2019-06-24T16:08:22 33284970 73f8b2... logstats { "device_id" : 4000, "temperature" : "10.00000000000000000", "humidity" : "0.50000000000000000", "vin" : "0.78129999999999999", "pressure" : "341.31209999999998672", "lat" : "47.18160000000000309", "lon" : "-119.31229999999999336" }
2019-06-24T15:57:57 33283716 9e6729... logstats { "device_id" : 4000, "temperature" : "10.00000000000000000", "humidity" : "0.50000000000000000", "vin" : "0.00000000000000000", "pressure" : "341.23300000000000409", "lat" : "47.18160000000000309", "lon" : "-119.31229999999999336" }
2019-06-24T15:53:55 33283225 efc9c5... logstats { "device_id" : 4000, "temperature" : "10.00000000000000000", "humidity" : "0.50000000000000000", "vin" : "0.00000000000000000", "pressure" : "341.22169999999999845", "lat" : "47.18160000000000309", "lon" : "-119.31229999999999336" }
2019-06-24T15:46:59 33282401 2c0274... logstats { "device_id" : 4000, "temperature" : "10.00000000000000000", "humidity" : "0.50000000000000000", "vin" : "0.58589999999999998", "pressure" : "341.26870000000002392", "lat" : "47.18160000000000309", "lon" : "-119.31229999999999336" }
2019-06-24T15:44:23 33282084 db0908... logstats { "device_id" : 4000, "temperature" : "10.00000000000000000", "humidity" : "0.50000000000000000", "vin" : "1.95320000000000005", "pressure" : "341.26920000000001210", "lat" : "47.18160000000000309", "lon" : "-119.31229999999999336" }
2019-06-24T15:43:10 33281934 6e694c... logstats { "device_id" : 4000, "temperature" : "10.00000000000000000", "humidity" : "0.50000000000000000", "vin" : "0.78129999999999999", "pressure" : "341.26990000000000691", "lat" : "47.18160000000000309", "lon" : "-119.31229999999999336" }
2019-06-24T15:40:32 33281625 7f867d... logstats { "device_id" : 4000, "temperature" : "10.00000000000000000", "humidity" : "0.50000000000000000", "vin" : "1.36719999999999997", "pressure" : "341.26769999999999072", "lat" : "47.18160000000000309", "lon" : "-119.31229999999999336" }
2019-06-24T15:39:15 33281471 243be3... logstats { "device_id" : 4000, "temperature" : "10.00000000000000000", "humidity" : "0.50000000000000000", "vin" : "1.75780000000000003", "pressure" : "341.26940000000001874", "lat" : "47.18160000000000309", "lon" : "-119.31229999999999336" }
2019-06-24T15:35:07 33280970 3a817e... logstats { "device_id" : 4000, "temperature" : "10.00000000000000000", "humidity" : "0.50000000000000000", "vin" : "1.56250000000000000", "pressure" : "341.27490000000000236", "lat" : "47.18160000000000309", "lon" : "-119.31229999999999336" }
2019-06-24T15:33:49 33280821 fe748a... logstats { "device_id" : 4000, "temperature" : "10.00000000000000000", "humidity" : "0.50000000000000000", "vin" : "0.78129999999999999", "pressure" : "341.27089999999998327", "lat" : "47.18160000000000309", "lon" : "-119.31229999999999336" }
2019-06-24T15:32:33 33280666 584142... logstats { "device_id" : 4000, "temperature" : "10.00000000000000000", "humidity" : "0.50000000000000000", "vin" : "0.00000000000000000", "pressure" : "341.27569999999997208", "lat" : "47.18160000000000309", "lon" : "-119.31229999999999336" }
2019-06-24T15:31:14 33280516 b25cd6... logstats { "device_id" : 4000, "temperature" : "10.00000000000000000", "humidity" : "0.50000000000000000", "vin" : "0.58589999999999998", "pressure" : "341.25889999999998281", "lat" : "47.18160000000000309", "lon" : "-119.31229999999999336" }
2019-06-24T15:22:47 33279495 b8a4d0... logstats { "device_id" : 4000, "temperature" : "10.00000000000000000", "humidity" : "0.50000000000000000", "vin" : "0.00000000000000000", "pressure" : "341.21570000000002665", "lat" : "47.18160000000000309", "lon" : "-119.31229999999999336" }
2019-06-24T15:18:36 33278998 63bedf... logstats { "device_id" : 4000, "temperature" : "10.00000000000000000", "humidity" : "0.50000000000000000", "vin" : "0.00000000000000000", "pressure" : "341.27580000000000382", "lat" : "47.18160000000000309", "lon" : "-119.31229999999999336" }
2019-06-24T15:15:53 33278674 3dd89f... logstats { "device_id" : 4000, "temperature" : "10.00000000000000000", "humidity" : "0.50000000000000000", "vin" : "0.58589999999999998", "pressure" : "341.25940000000002783", "lat" : "47.18160000000000309", "lon" : "-119.31229999999999336" }
2019-06-24T15:11:44 33278167 99510a... logstats { "device_id" : 4000, "temperature" : "10.00000000000000000", "humidity" : "0.50000000000000000", "vin" : "1.17189999999999994", "pressure" : "341.25040000000001328", "lat" : "47.18160000000000309", "lon" : "-119.31229999999999336" }
2019-06-24T15:09:07 33277853 283c47... logstats { "device_id" : 4000, "temperature" : "10.00000000000000000", "humidity" : "0.50000000000000000", "vin" : "0.39060000000000000", "pressure" : "341.24669999999997572", "lat" : "47.18160000000000309", "lon" : "-119.31229999999999336" }
2019-06-24T15:06:27 33277542 cb2544... logstats { "device_id" : 4000, "temperature" : "10.00000000000000000", "humidity" : "0.50000000000000000", "vin" : "0.00000000000000000", "pressure" : "341.26040000000000418", "lat" : "47.18160000000000309", "lon" : "-119.31229999999999336" }
2019-06-24T15:02:18 33277045 515805... logstats { "device_id" : 4000, "temperature" : "10.00000000000000000", "humidity" : "0.50000000000000000", "vin" : "0.00000000000000000", "pressure" : "341.24720000000002074", "lat" : "47.18160000000000309", "lon" : "-119.31229999999999336" }
2019-06-24T15:01:04 33276887 87e9e4... logstats { "device_id" : 4000, "temperature" : "10.00000000000000000", "humidity" : "0.50000000000000000", "vin" : "0.00000000000000000", "pressure" : "341.24579999999997426", "lat" : "47.18160000000000309", "lon" : "-119.31229999999999336" }
2019-06-24T14:59:48 33276742 d62963... logstats { "device_id" : 4000, "temperature" : "10.00000000000000000", "humidity" : "0.50000000000000000", "vin" : "0.00000000000000000", "pressure" : "341.25740000000001828", "lat" : "47.18160000000000309", "lon" : "-119.31229999999999336" }
2019-06-24T14:58:34 33276590 5ed764... logstats { "device_id" : 4000, "temperature" : "10.00000000000000000", "humidity" : "0.50000000000000000", "vin" : "0.00000000000000000", "pressure" : "341.19490000000001828", "lat" : "47.18160000000000309", "lon" : "-119.31229999999999336" }
2019-06-24T14:57:18 33276439 483471... logstats { "device_id" : 4000, "temperature" : "10.00000000000000000", "humidity" : "0.50000000000000000", "vin" : "0.00000000000000000", "pressure" : "341.20260000000001810", "lat" : "47.18160000000000309", "lon" : "-119.31229999999999336" }
2019-06-24T14:51:54 33275796 65ecc0... logstats { "device_id" : 4000, "temperature" : "10.00000000000000000", "humidity" : "0.50000000000000000", "vin" : "0.00000000000000000", "pressure" : "341.18959999999998445", "lat" : "47.18160000000000309", "lon" : "-119.31229999999999336" }
2019-06-24T14:46:23 33275134 ccfc25... logstats { "device_id" : 4000, "temperature" : "10.00000000000000000", "humidity" : "0.50000000000000000", "vin" : "0.78129999999999999", "pressure" : "341.23849999999998772", "lat" : "47.18160000000000309", "lon" : "-119.31229999999999336" }
2019-06-24T14:42:08 33274622 56b04e... logstats { "device_id" : 4000, "temperature" : "10.00000000000000000", "humidity" : "0.50000000000000000", "vin" : "1.17189999999999994", "pressure" : "341.23950000000002092", "lat" : "47.18160000000000309", "lon" : "-119.31229999999999336" }
2019-06-24T14:37:48 33274103 006e9a... logstats { "device_id" : 4000, "temperature" : "10.00000000000000000", "humidity" : "0.50000000000000000", "vin" : "1.36719999999999997", "pressure" : "341.22789999999997690", "lat" : "47.18160000000000309", "lon" : "-119.31229999999999336" }
2019-06-24T14:30:58 33273283 0634db... logstats { "device_id" : 4000, "temperature" : "10.00000000000000000", "humidity" : "0.50000000000000000", "vin" : "0.97660000000000002", "pressure" : "341.23469999999997526", "lat" : "47.18160000000000309", "lon" : "-119.31229999999999336" }
2019-06-24T14:21:09 33272104 db39ff... logstats { "device_id" : 4000, "temperature" : "10.00000000000000000", "humidity" : "0.50000000000000000", "vin" : "0.00000000000000000", "pressure" : "341.17469999999997299", "lat" : "47.18160000000000309", "lon" : "-119.31229999999999336" }
2019-06-24T14:18:29 33271780 0a7815... logstats { "device_id" : 4000, "temperature" : "10.00000000000000000", "humidity" : "0.50000000000000000", "vin" : "0.00000000000000000", "pressure" : "341.17380000000002838", "lat" : "47.18160000000000309", "lon" : "-119.31229999999999336" }
2019-06-24T14:17:16 33271633 abcefe... logstats { "device_id" : 4000, "temperature" : "10.00000000000000000", "humidity" : "0.50000000000000000", "vin" : "0.00000000000000000", "pressure" : "341.24169999999998026", "lat" : "47.18160000000000309", "lon" : "-119.31229999999999336" }
2019-06-24T14:15:58 33271487 df6424... logstats { "device_id" : 4000, "temperature" : "10.00000000000000000", "humidity" : "0.50000000000000000", "vin" : "0.58589999999999998", "pressure" : "341.22800000000000864", "lat" : "47.18160000000000309", "lon" : "-119.31229999999999336" }
2019-06-24T14:07:36 33270483 2f796f... logstats { "device_id" : 4000, "temperature" : "10.00000000000000000", "humidity" : "0.50000000000000000", "vin" : "0.78129999999999999", "pressure" : "341.25000000000000000", "lat" : "47.18160000000000309", "lon" : "-119.31229999999999336" }
2019-06-24T14:06:22 33270327 06bae0... logstats { "device_id" : 4000, "temperature" : "10.00000000000000000", "humidity" : "0.50000000000000000", "vin" : "0.39060000000000000", "pressure" : "341.26780000000002246", "lat" : "47.18160000000000309", "lon" : "-119.31229999999999336" }
2019-06-24T14:05:05 33270178 57e710... logstats { "device_id" : 4000, "temperature" : "10.00000000000000000", "humidity" : "0.50000000000000000", "vin" : "0.39060000000000000", "pressure" : "341.27390000000002601", "lat" : "47.18160000000000309", "lon" : "-119.31229999999999336" }
2019-06-24T14:00:51 33269677 08c20d... logstats { "device_id" : 4000, "temperature" : "10.00000000000000000", "humidity" : "0.50000000000000000", "vin" : "0.19530000000000000", "pressure" : "341.27060000000000173", "lat" : "47.18160000000000309", "lon" : "-119.31229999999999336" }
2019-06-24T13:40:56 33267380 c927b9... logstats { "device_id" : 4000, "temperature" : "10.00000000000000000", "humidity" : "0.50000000000000000", "vin" : "0.58589999999999998", "pressure" : "341.23099999999999454", "lat" : "47.18160000000000309", "lon" : "-119.31229999999999336" }
2019-06-24T13:38:12 33267065 4f7880... logstats { "device_id" : 4000, "temperature" : "10.00000000000000000", "humidity" : "0.50000000000000000", "vin" : "0.39060000000000000", "pressure" : "341.25479999999998881", "lat" : "47.18160000000000309", "lon" : "-119.31229999999999336" }
2019-06-24T13:34:09 33266591 1cc0f1... logstats { "device_id" : 4000, "temperature" : "10.00000000000000000", "humidity" : "0.50000000000000000", "vin" : "0.39060000000000000", "pressure" : "341.24250000000000682", "lat" : "47.18160000000000309", "lon" : "-119.31229999999999336" }
2019-06-24T13:29:55 33266082 bae22f... logstats { "device_id" : 4000, "temperature" : "10.00000000000000000", "humidity" : "0.50000000000000000", "vin" : "0.00000000000000000", "pressure" : "341.25339999999999918", "lat" : "47.18160000000000309", "lon" : "-119.31229999999999336" }
2019-06-24T13:27:17 33265768 3f18eb... logstats { "device_id" : 4000, "temperature" : "10.00000000000000000", "humidity" : "0.50000000000000000", "vin" : "0.00000000000000000", "pressure" : "341.26710000000002765", "lat" : "47.18160000000000309", "lon" : "-119.31229999999999336" }
2019-06-24T13:24:33 33265439 c39e03... logstats { "device_id" : 4000, "temperature" : "10.00000000000000000", "humidity" : "0.50000000000000000", "vin" : "0.00000000000000000", "pressure" : "341.22550000000001091", "lat" : "47.18160000000000309", "lon" : "-119.31229999999999336" }
2019-06-24T13:18:50 33264762 a09806... logstats { "device_id" : 4000, "temperature" : "10.00000000000000000", "humidity" : "0.50000000000000000", "vin" : "0.00000000000000000", "pressure" : "341.24189999999998690", "lat" : "47.18160000000000309", "lon" : "-119.31229999999999336" }
2019-06-24T13:17:33 33264606 78a8e7... logstats { "device_id" : 4000, "temperature" : "10.00000000000000000", "humidity" : "0.50000000000000000", "vin" : "0.19530000000000000", "pressure" : "341.28960000000000719", "lat" : "47.18160000000000309", "lon" : "-119.31229999999999336" }
2019-06-24T13:13:16 33264086 0f4ec8... logstats { "device_id" : 4000, "temperature" : "10.00000000000000000", "humidity" : "0.50000000000000000", "vin" : "5.85949999999999971", "pressure" : "341.24270000000001346", "lat" : "47.18160000000000309", "lon" : "-119.31229999999999336" }
2019-06-24T13:04:51 33263076 08431b... logstats { "device_id" : 4000, "temperature" : "10.00000000000000000", "humidity" : "0.50000000000000000", "vin" : "1.36719999999999997", "pressure" : "341.26850000000001728", "lat" : "47.18160000000000309", "lon" : "-119.31229999999999336" }
2019-06-24T13:03:37 33262928 10778c... logstats { "device_id" : 4000, "temperature" : "10.00000000000000000", "humidity" : "0.50000000000000000", "vin" : "0.97660000000000002", "pressure" : "341.26299999999997681", "lat" : "47.18160000000000309", "lon" : "-119.31229999999999336" }
2019-06-24T13:02:23 33262781 7b631c... logstats { "device_id" : 4000, "temperature" : "10.00000000000000000", "humidity" : "0.50000000000000000", "vin" : "0.00000000000000000", "pressure" : "341.26229999999998199", "lat" : "47.18160000000000309", "lon" : "-119.31229999999999336" }
2019-06-24T12:58:12 33262284 c8b88d... logstats { "device_id" : 4000, "temperature" : "10.00000000000000000", "humidity" : "0.50000000000000000", "vin" : "0.00000000000000000", "pressure" : "341.27749999999997499", "lat" : "47.18160000000000309", "lon" : "-119.31229999999999336" }
2019-06-24T12:56:56 33262133 47f86d... logstats { "device_id" : 4000, "temperature" : "10.00000000000000000", "humidity" : "0.50000000000000000", "vin" : "0.00000000000000000", "pressure" : "341.28399999999999181", "lat" : "47.18160000000000309", "lon" : "-119.31229999999999336" }
2019-06-24T12:54:11 33261803 4b8388... logstats { "device_id" : 4000, "temperature" : "10.00000000000000000", "humidity" : "0.50000000000000000", "vin" : "0.00000000000000000", "pressure" : "341.23759999999998627", "lat" : "47.18160000000000309", "lon" : "-119.31229999999999336" }
2019-06-24T12:51:19 33261451 c9d60b... logstats { "device_id" : 4000, "temperature" : "10.00000000000000000", "humidity" : "0.50000000000000000", "vin" : "0.00000000000000000", "pressure" : "341.22910000000001673", "lat" : "47.18160000000000309", "lon" : "-119.31229999999999336" }
2019-06-24T12:48:37 33261129 f43982... logstats { "device_id" : 4000, "temperature" : "10.00000000000000000", "humidity" : "0.50000000000000000", "vin" : "0.00000000000000000", "pressure" : "341.23890000000000100", "lat" : "47.18160000000000309", "lon" : "-119.31229999999999336" }
2019-06-24T12:41:32 33260286 7ccabd... logstats { "device_id" : 4000, "temperature" : "10.00000000000000000", "humidity" : "0.50000000000000000", "vin" : "0.58589999999999998", "pressure" : "341.28070000000002437", "lat" : "47.18160000000000309", "lon" : "-119.31229999999999336" }
2019-06-24T12:40:13 33260130 03f51f... logstats { "device_id" : 4000, "temperature" : "10.00000000000000000", "humidity" : "0.50000000000000000", "vin" : "0.97660000000000002", "pressure" : "341.27789999999998827", "lat" : "47.18160000000000309", "lon" : "-119.31229999999999336" }
2019-06-24T12:38:57 33259974 870202... logstats { "device_id" : 4000, "temperature" : "10.00000000000000000", "humidity" : "0.50000000000000000", "vin" : "0.78129999999999999", "pressure" : "341.30250000000000909", "lat" : "47.18160000000000309", "lon" : "-119.31229999999999336" }
2019-06-24T12:34:57 33259495 8e7dc2... logstats { "device_id" : 4000, "temperature" : "10.00000000000000000", "humidity" : "0.50000000000000000", "vin" : "0.58589999999999998", "pressure" : "341.30110000000001946", "lat" : "47.18160000000000309", "lon" : "-119.31229999999999336" }
2019-06-24T12:33:43 33259343 42e21b... logstats { "device_id" : 4000, "temperature" : "10.00000000000000000", "humidity" : "0.50000000000000000", "vin" : "0.58589999999999998", "pressure" : "341.29869999999999663", "lat" : "47.18160000000000309", "lon" : "-119.31229999999999336" }
2019-06-24T12:32:26 33259196 74cdcc... logstats { "device_id" : 4000, "temperature" : "10.00000000000000000", "humidity" : "0.50000000000000000", "vin" : "0.19530000000000000", "pressure" : "341.29649999999998045", "lat" : "47.18160000000000309", "lon" : "-119.31229999999999336" }
2019-06-24T12:31:13 33259039 56c9fe... logstats { "device_id" : 4000, "temperature" : "10.00000000000000000", "humidity" : "0.50000000000000000", "vin" : "0.58589999999999998", "pressure" : "341.30590000000000828", "lat" : "47.18160000000000309", "lon" : "-119.31229999999999336" }
2019-06-24T12:25:35 33258372 6197ff... logstats { "device_id" : 4000, "temperature" : "10.00000000000000000", "humidity" : "0.50000000000000000", "vin" : "0.78129999999999999", "pressure" : "341.26659999999998263", "lat" : "47.18160000000000309", "lon" : "-119.31229999999999336" }
2019-06-24T12:24:22 33258217 3f094e... logstats { "device_id" : 4000, "temperature" : "10.00000000000000000", "humidity" : "0.50000000000000000", "vin" : "0.39060000000000000", "pressure" : "341.26830000000001064", "lat" : "47.18160000000000309", "lon" : "-119.31229999999999336" }
2019-06-24T12:23:07 33258069 be3fb6... logstats { "device_id" : 4000, "temperature" : "10.00000000000000000", "humidity" : "0.50000000000000000", "vin" : "0.58589999999999998", "pressure" : "341.28039999999998599", "lat" : "47.18160000000000309", "lon" : "-119.31229999999999336" }
2019-06-24T12:18:59 33257572 decde0... logstats { "device_id" : 4000, "temperature" : "10.00000000000000000", "humidity" : "0.50000000000000000", "vin" : "0.58589999999999998", "pressure" : "341.28890000000001237", "lat" : "47.18160000000000309", "lon" : "-119.31229999999999336" }
2019-06-24T12:16:10 33257233 17b25d... logstats { "device_id" : 4000, "temperature" : "10.00000000000000000", "humidity" : "0.50000000000000000", "vin" : "0.78129999999999999", "pressure" : "341.35579999999998790", "lat" : "47.18160000000000309", "lon" : "-119.31229999999999336" }
2019-06-24T12:11:59 33256736 641669... logstats { "device_id" : 4000, "temperature" : "10.00000000000000000", "humidity" : "0.50000000000000000", "vin" : "0.97660000000000002", "pressure" : "341.35430000000002337", "lat" : "47.18160000000000309", "lon" : "-119.31229999999999336" }
2019-06-24T12:10:42 33256586 6f6aad... logstats { "device_id" : 4000, "temperature" : "10.00000000000000000", "humidity" : "0.50000000000000000", "vin" : "0.78129999999999999", "pressure" : "341.35199999999997544", "lat" : "47.18160000000000309", "lon" : "-119.31229999999999336" }
2019-06-24T12:09:28 33256432 d6f31d... logstats { "device_id" : 4000, "temperature" : "10.00000000000000000", "humidity" : "0.50000000000000000", "vin" : "0.97660000000000002", "pressure" : "341.35480000000001155", "lat" : "47.18160000000000309", "lon" : "-119.31229999999999336" }
2019-06-24T12:06:51 33256124 cc9926... logstats { "device_id" : 4000, "temperature" : "10.00000000000000000", "humidity" : "0.50000000000000000", "vin" : "0.78129999999999999", "pressure" : "341.35660000000001446", "lat" : "47.18160000000000309", "lon" : "-119.31229999999999336" }
2019-06-24T11:59:44 33255271 7aab8d... logstats { "device_id" : 4000, "temperature" : "10.00000000000000000", "humidity" : "0.50000000000000000", "vin" : "0.97660000000000002", "pressure" : "341.38400000000001455", "lat" : "47.18160000000000309", "lon" : "-119.31229999999999336" }
2019-06-24T11:58:31 33255118 524577... logstats { "device_id" : 4000, "temperature" : "10.00000000000000000", "humidity" : "0.50000000000000000", "vin" : "0.97660000000000002", "pressure" : "341.38609999999999900", "lat" : "47.18160000000000309", "lon" : "-119.31229999999999336" }
2019-06-24T11:55:53 33254803 f127e1... logstats { "device_id" : 4000, "temperature" : "10.00000000000000000", "humidity" : "0.50000000000000000", "vin" : "0.39060000000000000", "pressure" : "341.40269999999998163", "lat" : "47.18160000000000309", "lon" : "-119.31229999999999336" }
2019-06-24T11:50:27 33254151 c9aad0... logstats { "device_id" : 4000, "temperature" : "10.00000000000000000", "humidity" : "0.50000000000000000", "vin" : "0.78129999999999999", "pressure" : "341.36829999999997654", "lat" : "47.18160000000000309", "lon" : "-119.31229999999999336" }
2019-06-24T11:49:13 33254003 dce2d3... logstats { "device_id" : 4000, "temperature" : "10.00000000000000000", "humidity" : "0.50000000000000000", "vin" : "0.78129999999999999", "pressure" : "341.37299999999999045", "lat" : "47.18160000000000309", "lon" : "-119.31229999999999336" }
2019-06-24T11:44:53 33253489 307de5... logstats { "device_id" : 4000, "temperature" : "10.00000000000000000", "humidity" : "0.50000000000000000", "vin" : "0.58589999999999998", "pressure" : "341.43270000000001119", "lat" : "47.18160000000000309", "lon" : "-119.31229999999999336" }
2019-06-24T11:37:57 33252653 4fb6b3... logstats { "device_id" : 4000, "temperature" : "10.00000000000000000", "humidity" : "0.50000000000000000", "vin" : "0.97660000000000002", "pressure" : "341.45299999999997453", "lat" : "47.18160000000000309", "lon" : "-119.31229999999999336" }
2019-06-24T11:35:23 33252344 6b9a84... logstats { "device_id" : 4000, "temperature" : "10.00000000000000000", "humidity" : "0.50000000000000000", "vin" : "0.97660000000000002", "pressure" : "341.47469999999998436", "lat" : "47.18160000000000309", "lon" : "-119.31229999999999336" }
2019-06-24T11:22:23 33250791 5f466a... logstats { "device_id" : 4000, "temperature" : "10.00000000000000000", "humidity" : "0.50000000000000000", "vin" : "0.78129999999999999", "pressure" : "341.46339999999997872", "lat" : "47.18160000000000309", "lon" : "-119.31229999999999336" }
2019-06-24T11:13:52 33249760 be1895... logstats { "device_id" : 4000, "temperature" : "10.00000000000000000", "humidity" : "0.50000000000000000", "vin" : "0.78129999999999999", "pressure" : "341.51859999999999218", "lat" : "47.18160000000000309", "lon" : "-119.31229999999999336" }
2019-06-24T11:11:14 33249444 6ac1a2... logstats { "device_id" : 4000, "temperature" : "10.00000000000000000", "humidity" : "0.50000000000000000", "vin" : "0.78129999999999999", "pressure" : "341.51940000000001874", "lat" : "47.18160000000000309", "lon" : "-119.31229999999999336" }
2019-06-24T11:02:53 33248451 7b7f8b... logstats { "device_id" : 4000, "temperature" : "10.00000000000000000", "humidity" : "0.50000000000000000", "vin" : "0.78129999999999999", "pressure" : "341.53480000000001837", "lat" : "47.18160000000000309", "lon" : "-119.31229999999999336" }
2019-06-24T10:45:42 33246388 3d1143... logstats { "device_id" : 4000, "temperature" : "10.00000000000000000", "humidity" : "0.50000000000000000", "vin" : "0.97660000000000002", "pressure" : "341.58749999999997726", "lat" : "47.18160000000000309", "lon" : "-119.31229999999999336" }
2019-06-24T10:35:37 33245169 dd8edf... logstats { "device_id" : 4000, "temperature" : "10.00000000000000000", "humidity" : "0.50000000000000000", "vin" : "0.97660000000000002", "pressure" : "341.58310000000000173", "lat" : "47.18160000000000309", "lon" : "-119.31229999999999336" }
2019-06-24T10:31:26 33244667 b73d9e... logstats { "device_id" : 4000, "temperature" : "10.00000000000000000", "humidity" : "0.50000000000000000", "vin" : "0.97660000000000002", "pressure" : "341.57139999999998281", "lat" : "47.18160000000000309", "lon" : "-119.31229999999999336" }
2019-06-24T10:30:12 33244521 ead5ca... logstats { "device_id" : 4000, "temperature" : "10.00000000000000000", "humidity" : "0.50000000000000000", "vin" : "0.00000000000000000", "pressure" : "341.57560000000000855", "lat" : "47.18160000000000309", "lon" : "-119.31229999999999336" }
2019-06-24T10:25:56 33244015 eddeb6... logstats { "device_id" : 4000, "temperature" : "10.00000000000000000", "humidity" : "0.50000000000000000", "vin" : "0.39060000000000000", "pressure" : "341.56299999999998818", "lat" : "47.18160000000000309", "lon" : "-119.31229999999999336" }
2019-06-24T10:07:41 33241825 501c8a... logstats { "device_id" : 4000, "temperature" : "10.00000000000000000", "humidity" : "0.50000000000000000", "vin" : "0.78129999999999999", "pressure" : "341.57179999999999609", "lat" : "47.18160000000000309", "lon" : "-119.31229999999999336" }
2019-06-24T10:06:24 33241674 a7af63... logstats { "device_id" : 4000, "temperature" : "10.00000000000000000", "humidity" : "0.50000000000000000", "vin" : "0.97660000000000002", "pressure" : "341.57110000000000127", "lat" : "47.18160000000000309", "lon" : "-119.31229999999999336" }
2019-06-24T10:05:10 33241522 35a376... logstats { "device_id" : 4000, "temperature" : "10.00000000000000000", "humidity" : "0.50000000000000000", "vin" : "0.97660000000000002", "pressure" : "341.56349999999997635", "lat" : "47.18160000000000309", "lon" : "-119.31229999999999336" }
2019-06-24T09:56:49 33240524 b2a12b... logstats { "device_id" : 4000, "temperature" : "10.00000000000000000", "humidity" : "0.50000000000000000", "vin" : "0.97660000000000002", "pressure" : "341.56349999999997635", "lat" : "47.18160000000000309", "lon" : "-119.31229999999999336" }
2019-06-24T09:55:32 33240369 f110aa... logstats { "device_id" : 4000, "temperature" : "10.00000000000000000", "humidity" : "0.50000000000000000", "vin" : "0.97660000000000002", "pressure" : "341.56229999999999336", "lat" : "47.18160000000000309", "lon" : "-119.31229999999999336" }
2019-06-24T09:54:18 33240217 bdb8f1... logstats { "device_id" : 4000, "temperature" : "10.00000000000000000", "humidity" : "0.50000000000000000", "vin" : "0.39060000000000000", "pressure" : "341.58650000000000091", "lat" : "47.18160000000000309", "lon" : "-119.31229999999999336" }
2019-06-24T09:53:02 33240068 4184cd... logstats { "device_id" : 4000, "temperature" : "10.00000000000000000", "humidity" : "0.50000000000000000", "vin" : "0.78129999999999999", "pressure" : "341.53050000000001774", "lat" : "47.18160000000000309", "lon" : "-119.31229999999999336" }
2019-06-24T09:51:43 33239916 dde038... logstats { "device_id" : 4000, "temperature" : "10.00000000000000000", "humidity" : "0.50000000000000000", "vin" : "0.58589999999999998", "pressure" : "341.52120000000002165", "lat" : "47.18160000000000309", "lon" : "-119.31229999999999336" }
2019-06-24T09:48:42 33239552 82ca8f... logstats { "device_id" : 4000, "temperature" : "10.00000000000000000", "humidity" : "0.50000000000000000", "vin" : "0.78129999999999999", "pressure" : "341.51109999999999900", "lat" : "47.18160000000000309", "lon" : "-119.31229999999999336" }
2019-06-24T09:43:13 33238918 21fbb4... logstats { "device_id" : 4000, "temperature" : "10.00000000000000000", "humidity" : "0.50000000000000000", "vin" : "0.78129999999999999", "pressure" : "341.55849999999998090", "lat" : "47.18160000000000309", "lon" : "-119.31229999999999336" }
2019-06-24T09:40:39 33238628 895b80... logstats { "device_id" : 4000, "temperature" : "10.00000000000000000", "humidity" : "0.50000000000000000", "vin" : "0.58589999999999998", "pressure" : "341.56240000000002510", "lat" : "47.18160000000000309", "lon" : "-119.31229999999999336" }
2019-06-24T09:36:36 33238163 0401bb... logstats { "device_id" : 4000, "temperature" : "10.00000000000000000", "humidity" : "0.50000000000000000", "vin" : "0.97660000000000002", "pressure" : "341.55570000000000164", "lat" : "47.18160000000000309", "lon" : "-119.31229999999999336" }
2019-06-24T09:33:55 33237860 90e437... logstats { "device_id" : 4000, "temperature" : "10.00000000000000000", "humidity" : "0.50000000000000000", "vin" : "0.97660000000000002", "pressure" : "341.56180000000000518", "lat" : "47.18160000000000309", "lon" : "-119.31229999999999336" }
2019-06-24T09:31:20 33237557 0e1922... logstats { "device_id" : 4000, "temperature" : "10.00000000000000000", "humidity" : "0.50000000000000000", "vin" : "0.78129999999999999", "pressure" : "341.57130000000000791", "lat" : "47.18160000000000309", "lon" : "-119.31229999999999336" }
2019-06-24T09:27:16 33237095 0b73d9... logstats { "device_id" : 4000, "temperature" : "10.00000000000000000", "humidity" : "0.50000000000000000", "vin" : "0.78129999999999999", "pressure" : "341.57339999999999236", "lat" : "47.18160000000000309", "lon" : "-119.31229999999999336" }
2019-06-24T09:26:02 33236955 0bb933... logstats { "device_id" : 4000, "temperature" : "10.00000000000000000", "humidity" : "0.50000000000000000", "vin" : "0.78129999999999999", "pressure" : "341.57909999999998263", "lat" : "47.18160000000000309", "lon" : "-119.31229999999999336" }
2019-06-24T09:20:40 33236336 e9302b... logstats { "device_id" : 4000, "temperature" : "10.00000000000000000", "humidity" : "0.50000000000000000", "vin" : "0.58589999999999998", "pressure" : "341.51879999999999882", "lat" : "47.18160000000000309", "lon" : "-119.31229999999999336" }
2019-06-24T09:18:02 33236038 5641b5... logstats { "device_id" : 4000, "temperature" : "10.00000000000000000", "humidity" : "0.50000000000000000", "vin" : "0.39060000000000000", "pressure" : "341.58519999999998618", "lat" : "47.18160000000000309", "lon" : "-119.31229999999999336" }
2019-06-24T09:16:48 33235896 52d637... logstats { "device_id" : 4000, "temperature" : "10.00000000000000000", "humidity" : "0.50000000000000000", "vin" : "0.39060000000000000", "pressure" : "341.57949999999999591", "lat" : "47.18160000000000309", "lon" : "-119.31229999999999336" }
2019-06-24T09:12:48 33235439 607ded... logstats { "device_id" : 4000, "temperature" : "10.00000000000000000", "humidity" : "0.50000000000000000", "vin" : "0.97660000000000002", "pressure" : "341.59269999999997935", "lat" : "47.18160000000000309", "lon" : "-119.31229999999999336" }
2019-06-24T09:11:34 33235305 671ded... logstats { "device_id" : 4000, "temperature" : "10.00000000000000000", "humidity" : "0.50000000000000000", "vin" : "1.95320000000000005", "pressure" : "341.58949999999998681", "lat" : "47.18160000000000309", "lon" : "-119.31229999999999336" }
2019-06-24T09:07:31 33234838 0b796f... logstats { "device_id" : 4000, "temperature" : "10.00000000000000000", "humidity" : "0.50000000000000000", "vin" : "1.36719999999999997", "pressure" : "341.59649999999999181", "lat" : "47.18160000000000309", "lon" : "-119.31229999999999336" }
2019-06-24T09:04:54 33234538 86ada9... logstats { "device_id" : 4000, "temperature" : "10.00000000000000000", "humidity" : "0.50000000000000000", "vin" : "0.78129999999999999", "pressure" : "341.60660000000001446", "lat" : "47.18160000000000309", "lon" : "-119.31229999999999336" }
2019-06-24T09:03:40 33234391 45e292... logstats { "device_id" : 4000, "temperature" : "10.00000000000000000", "humidity" : "0.50000000000000000", "vin" : "0.58589999999999998", "pressure" : "341.61270000000001801", "lat" : "47.18160000000000309", "lon" : "-119.31229999999999336" }
2019-06-24T09:02:22 33234254 663f6e... logstats { "device_id" : 4000, "temperature" : "10.00000000000000000", "humidity" : "0.50000000000000000", "vin" : "0.58589999999999998", "pressure" : "341.62130000000001928", "lat" : "47.18160000000000309", "lon" : "-119.31229999999999336" }
2019-06-24T08:59:40 33233936 68df07... logstats { "device_id" : 4000, "temperature" : "10.00000000000000000", "humidity" : "0.50000000000000000", "vin" : "0.78129999999999999", "pressure" : "341.61549999999999727", "lat" : "47.18160000000000309", "lon" : "-119.31229999999999336" }
2019-06-24T08:54:02 33233298 8b8f19... logstats { "device_id" : 4000, "temperature" : "10.00000000000000000", "humidity" : "0.50000000000000000", "vin" : "0.97660000000000002", "pressure" : "341.64080000000001291", "lat" : "47.18160000000000309", "lon" : "-119.31229999999999336" }
2019-06-24T08:49:46 33232808 b269c0... logstats { "device_id" : 4000, "temperature" : "10.00000000000000000", "humidity" : "0.50000000000000000", "vin" : "0.97660000000000002", "pressure" : "341.65859999999997854", "lat" : "47.18160000000000309", "lon" : "-119.31229999999999336" }
2019-06-24T08:45:43 33232347 12cc0f... logstats { "device_id" : 4000, "temperature" : "10.00000000000000000", "humidity" : "0.50000000000000000", "vin" : "0.78129999999999999", "pressure" : "341.67020000000002256", "lat" : "47.18160000000000309", "lon" : "-119.31229999999999336" }
2019-06-24T08:44:30 33232199 82dde5... logstats { "device_id" : 4000, "temperature" : "10.00000000000000000", "humidity" : "0.50000000000000000", "vin" : "0.97660000000000002", "pressure" : "341.67090000000001737", "lat" : "47.18160000000000309", "lon" : "-119.31229999999999336" }
2019-06-24T08:43:15 33232065 6cdd17... logstats { "device_id" : 4000, "temperature" : "10.00000000000000000", "humidity" : "0.50000000000000000", "vin" : "0.97660000000000002", "pressure" : "341.67520000000001801", "lat" : "47.18160000000000309", "lon" : "-119.31229999999999336" }
2019-06-24T08:35:10 33231139 0c7e81... logstats { "device_id" : 4000, "temperature" : "10.00000000000000000", "humidity" : "0.50000000000000000", "vin" : "1.56250000000000000", "pressure" : "341.68529999999998381", "lat" : "47.18160000000000309", "lon" : "-119.31229999999999336" }
2019-06-24T08:20:53 33229510 1df8f8... logstats { "device_id" : 4000, "temperature" : "10.00000000000000000", "humidity" : "0.50000000000000000", "vin" : "0.78129999999999999", "pressure" : "341.69760000000002265", "lat" : "47.18160000000000309", "lon" : "-119.31229999999999336" }
2019-06-24T08:18:22 33229229 f764f9... logstats { "device_id" : 4000, "temperature" : "10.00000000000000000", "humidity" : "0.50000000000000000", "vin" : "1.17189999999999994", "pressure" : "341.70380000000000109", "lat" : "47.18160000000000309", "lon" : "-119.31229999999999336" }
2019-06-24T08:14:22 33228766 dc1e50... logstats { "device_id" : 4000, "temperature" : "10.00000000000000000", "humidity" : "0.50000000000000000", "vin" : "0.78129999999999999", "pressure" : "341.69189999999997553", "lat" : "47.18160000000000309", "lon" : "-119.31229999999999336" }
2019-06-24T08:10:18 33228298 e78d8a... logstats { "device_id" : 4000, "temperature" : "10.00000000000000000", "humidity" : "0.50000000000000000", "vin" : "1.75780000000000003", "pressure" : "341.68509999999997717", "lat" : "47.18160000000000309", "lon" : "-119.31229999999999336" }
2019-06-24T08:04:43 33227654 370334... logstats { "device_id" : 4000, "temperature" : "10.00000000000000000", "humidity" : "0.50000000000000000", "vin" : "2.14849999999999985", "pressure" : "341.68410000000000082", "lat" : "47.18160000000000309", "lon" : "-119.31229999999999336" }
2019-06-24T07:59:03 33227008 2402ad... logstats { "device_id" : 4000, "temperature" : "10.00000000000000000", "humidity" : "0.50000000000000000", "vin" : "1.75780000000000003", "pressure" : "341.68569999999999709", "lat" : "47.18160000000000309", "lon" : "-119.31229999999999336" }
2019-06-24T07:57:44 33226873 761fb2... logstats { "device_id" : 4000, "temperature" : "10.00000000000000000", "humidity" : "0.50000000000000000", "vin" : "1.56250000000000000", "pressure" : "341.68990000000002283", "lat" : "47.18160000000000309", "lon" : "-119.31229999999999336" }
2019-06-24T07:56:28 33226716 d65495... logstats { "device_id" : 4000, "temperature" : "10.00000000000000000", "humidity" : "0.50000000000000000", "vin" : "1.17189999999999994", "pressure" : "341.67599999999998772", "lat" : "47.18160000000000309", "lon" : "-119.31229999999999336" }
2019-06-24T07:50:56 33226083 0ab6da... logstats { "device_id" : 4000, "temperature" : "10.00000000000000000", "humidity" : "0.50000000000000000", "vin" : "0.97660000000000002", "pressure" : "341.68180000000000973", "lat" : "47.18160000000000309", "lon" : "-119.31229999999999336" }
2019-06-24T07:44:04 33225283 168258... logstats { "device_id" : 4000, "temperature" : "10.00000000000000000", "humidity" : "0.50000000000000000", "vin" : "1.75780000000000003", "pressure" : "341.69290000000000873", "lat" : "47.18160000000000309", "lon" : "-119.31229999999999336" }
2019-06-24T07:42:49 33225137 91c52a... logstats { "device_id" : 4000, "temperature" : "10.00000000000000000", "humidity" : "0.50000000000000000", "vin" : "1.36719999999999997", "pressure" : "341.69139999999998736", "lat" : "47.18160000000000309", "lon" : "-119.31229999999999336" }
2019-06-24T07:38:43 33224648 810f07... logstats { "device_id" : 4000, "temperature" : "10.00000000000000000", "humidity" : "0.50000000000000000", "vin" : "4.88290000000000024", "pressure" : "341.69970000000000709", "lat" : "47.18160000000000309", "lon" : "-119.31229999999999336" }
2019-06-24T07:36:05 33224326 590ac1... logstats { "device_id" : 4000, "temperature" : "10.00000000000000000", "humidity" : "0.50000000000000000", "vin" : "4.10160000000000036", "pressure" : "341.70819999999997663", "lat" : "47.18160000000000309", "lon" : "-119.31229999999999336" }